TimeMDT,TemperatureF,Dew PointF,Humidity,Sea Level PressureIn,VisibilityMPH,Wind Direction,Wind SpeedMPH,Gust SpeedMPH,PrecipitationIn,Events,Conditions,WindDirDegrees,DateUTC
12:53 AM,57.0,37.9,49,30.11,10.0,Calm,Calm,-,N/A,,Clear,0,2013-05-12 06:53:00
1:53 AM,55.9,37.9,51,30.11,10.0,Calm,Calm,-,N/A,,Clear,0,2013-05-12 07:53:00
2:53 AM,54.0,37.9,55,30.10,10.0,Calm,Calm,-,N/A,,Clear,0,2013-05-12 08:53:00
3:53 AM,53.1,37.0,55,30.09,10.0,Calm,Calm,-,N/A,,Clear,0,2013-05-12 09:53:00
4:53 AM,50.0,37.9,63,30.11,10.0,NNW,3.5,-,N/A,,Clear,340,2013-05-12 10:53:00
5:53 AM,48.9,37.9,66,30.11,10.0,SW,3.5,-,N/A,,Clear,220,2013-05-12 11:53:00
6:53 AM,52.0,39.9,63,30.11,10.0,Calm,Calm,-,N/A,,Clear,0,2013-05-12 12:53:00
7:53 AM,55.0,39.0,55,30.11,10.0,North,3.5,-,N/A,,Clear,350,2013-05-12 13:53:00
8:53 AM,57.9,39.9,51,30.11,10.0,Calm,Calm,-,N/A,,Clear,0,2013-05-12 14:53:00
9:53 AM,64.9,39.0,39,30.10,10.0,Calm,Calm,-,N/A,,Clear,0,2013-05-12 15:53:00
10:53 AM,70.0,39.9,33,30.07,10.0,ESE,3.5,-,N/A,,Clear,110,2013-05-12 16:53:00
11:53 AM,78.1,37.0,23,30.05,10.0,Variable,4.6,-,N/A,,Clear,0,2013-05-12 17:53:00
12:53 PM,78.1,39.0,25,30.03,10.0,North,8.1,-,N/A,,Clear,10,2013-05-12 18:53:00
1:53 PM,78.1,39.9,25,30.01,10.0,NE,8.1,-,N/A,,Clear,50,2013-05-12 19:53:00
2:53 PM,80.1,39.0,23,29.98,10.0,Variable,3.5,-,N/A,,Clear,0,2013-05-12 20:53:00
3:53 PM,82.0,39.0,22,29.93,10.0,Calm,Calm,-,N/A,,Clear,0,2013-05-12 21:53:00
4:53 PM,84.9,36.0,17,29.91,10.0,WNW,13.8,20.7,N/A,,Partly Cloudy,290,2013-05-12 22:53:00
5:53 PM,86.0,32.0,14,29.90,10.0,West,15.0,25.3,N/A,,Partly Cloudy,260,2013-05-12 23:53:00
6:53 PM,82.9,32.0,16,29.88,10.0,West,17.3,-,N/A,,Clear,280,2013-05-13 00:53:00
7:53 PM,81.0,36.0,20,29.89,10.0,WNW,9.2,-,N/A,,Clear,290,2013-05-13 01:53:00
8:53 PM,75.0,37.0,25,29.92,10.0,West,9.2,-,N/A,,Clear,280,2013-05-13 02:53:00
9:53 PM,71.1,39.0,31,29.94,10.0,WNW,4.6,-,N/A,,Clear,290,2013-05-13 03:53:00
10:53 PM,70.0,39.9,33,29.94,10.0,West,5.8,-,N/A,,Clear,280,2013-05-13 04:53:00
11:53 PM,69.1,39.9,35,29.93,10.0,West,10.4,-,N/A,,Clear,280,2013-05-13 05:53:00